Location: Hannover
(52.3723°N, 9.7339°E)
Time: 18:51:07
(UTC+02:00)

ISS - Visible Passes

Search period start: 26 March 2017 00:00
Search period end: 05 April 2017 01:00
Orbit: 399 x 409 km, 51.6° (Epoch: 27 March)

Date Brightness Start Highest point End Pass type
(mag) Time Alt. Az. Time Alt. Az. Time Alt. Az.
28 Mar -2.0 20:59:53 10° S 21:01:52 16° SE 21:01:52 16° SE visible
29 Mar -3.0 21:42:30 10° SW 21:45:00 34° S 21:45:00 34° S visible
30 Mar -2.7 20:50:30 10° SSW 20:53:17 26° SSE 20:55:12 16° ESE visible
30 Mar -2.2 22:26:11 10° WSW 22:27:53 28° WSW 22:27:53 28° WSW visible
31 Mar -3.7 21:33:51 10° WSW 21:37:03 56° SSE 21:37:53 41° ESE visible
31 Mar -0.9 23:10:10 10° W 23:10:33 13° W 23:10:33 13° W visible
01 Apr -3.3 20:41:36 10° SW 20:44:41 41° SSE 20:47:46 10° E visible
01 Apr -3.4 22:17:44 10° W 22:20:25 56° WSW 22:20:25 56° WSW visible
02 Apr -3.9 21:25:18 10° WSW 21:28:33 73° S 21:30:10 27° E visible
02 Apr -1.4 23:01:43 10° W 23:02:49 19° W 23:02:49 19° W visible
03 Apr -3.7 20:32:55 10° WSW 20:36:08 60° SSE 20:39:22 10° E visible
03 Apr -4.0 22:09:15 10° W 22:12:30 78° S 22:12:30 78° S visible
04 Apr -3.9 21:16:47 10° W 21:20:03 80° S 21:22:07 21° E visible
04 Apr -1.8 22:53:13 10° W 22:54:46 24° W 22:54:46 24° W visible
